Wind_Speed
24 24 25 23 22 22 22 23 23 23 23 23 24 24 25 24 24 24 24 24 24 23 23 22 20 20 18 17 16 17 16 15 14 13 13 12 11 11 10 10 9 9 8 8 9 9 9 9 9 10 10 10 10 11 12 12 11 11 11 11 11 11 11 11 12 13 11 9 12 13 13 13 14 13 12 11 13 15 16 14 14 15 15 15 15
27 27 26 25 24 23 23 23 23 23 23 23 24 24 24 23 23 22 22 22 22 22 22 21 20 19 18 17 17 17 16 16 16 15 14 13 12 11 10 10 9 10 9 9 10 10 11 11 11 12 13 14 14 14 13 11 10 10 10 11 11 10 10 10 11 13 11 9 11 13 13 12 13 13 12 11 12 14 15 14 13 15 15 15 15
29 28 26 26 25 23 24 23 23 23 22 23 23 23 24 23 22 21 21 22 22 22 22 21 20 19 18 17 16 16 16 16 16 15 15 14 14 12 11 11 11 12 11 11 12 13 13 13 13 15 17 18 16 15 14 13 12 11 10 10 10 10 10 10 10 12 11 9 10 11 12 11 12 12 12 11 11 13 14 14 13 15 14 14 15
30 29 27 28 26 24 24 23 23 22 22 22 22 22 23 23 22 21 21 21 21 22 21 20 19 19 18 16 16 15 16 16 15 15 15 15 15 13 12 11 11 12 12 12 13 13 13 13 14 16 17 14 12 11 12 13 13 12 12 11 10 9 9 9 10 11 11 9 8 9 11 11 11 11 11 10 10 11 13 14 14 13 12 13 14
32 29 28 28 27 25 23 24 23 23 23 22 22 21 22 23 22 21 20 20 20 22 21 20 19 18 17 16 15 14 14 15 14 13 14 14 14 13 12 12 11 11 12 12 12 12 12 12 13 14 13 9 8 8 8 9 10 11 11 11 10 9 7 8 8 8 10 10 8 8 10 11 11 9 10 10 10 10 11 13 12 11 12 12 13
33 30 30 28 28 26 24 24 23 23 23 22 22 21 22 22 22 20 20 20 21 21 21 19 18 18 17 16 15 14 13 13 13 13 13 13 13 13 12 11 11 11 12 11 11 11 10 11 12 12 10 7 6 5 5 7 7 8 8 8 8 8 7 6 5 5 7 9 8 6 7 9 10 9 9 10 11 11 12 12 11 11 12 12 13
32 31 30 29 29 27 25 24 24 24 22 22 22 21 22 22 22 20 20 20 21 20 19 18 17 16 16 15 14 13 12 12 12 12 11 12 12 12 12 11 11 10 10 10 10 9 9 9 10 11 8 6 6 3 3 5 5 6 6 6 6 6 6 6 5 4 5 7 7 6 6 7 8 8 8 9 10 11 12 12 11 12 12 13 12
31 31 29 29 30 28 26 25 24 23 23 22 22 21 21 21 21 20 20 19 19 18 18 18 16 15 15 15 14 12 11 11 11 11 10 10 10 11 11 10 9 9 9 9 9 9 8 8 9 9 7 5 4 2 2 3 4 4 5 4 4 4 5 5 4 5 5 4 5 7 7 7 7 8 9 10 10 10 12 12 12 12 13 12 12
30 29 29 29 29 27 26 25 24 23 23 23 22 21 21 21 21 21 20 19 17 15 15 17 16 14 14 14 13 11 10 10 10 9 9 9 9 10 10 10 8 8 7 7 8 8 8 7 7 8 6 4 3 2 1 2 3 4 4 3 3 3 3 4 4 4 3 3 4 7 8 8 8 8 10 11 10 10 11 12 12 13 13 12 12
29 28 28 29 29 27 25 25 24 23 23 22 22 21 20 21 21 20 19 18 16 14 14 14 15 13 13 13 12 11 9 9 9 8 8 8 8 9 8 8 8 6 6 6 7 7 7 6 5 6 6 4 3 2 1 1 3 4 3 2 2 3 4 4 4 3 1 0 2 5 8 9 8 8 9 9 10 10 10 11 12 12 11 11 12
28 29 28 29 28 26 25 25 23 23 22 22 22 21 20 21 20 19 18 17 16 14 13 12 13 12 12 11 11 10 9 8 7 7 7 7 7 7 7 7 6 6 5 5 5 6 5 4 4 4 6 5 3 3 2 2 2 3 3 2 2 3 4 4 4 4 3 3 3 5 8 9 9 9 9 8 10 10 9 10 11 11 10 10 12
27 29 28 28 28 25 25 24 23 23 22 22 21 20 20 20 19 18 17 17 15 14 13 11 11 11 11 10 10 9 8 7 6 6 6 6 6 5 6 6 5 5 4 4 4 4 3 3 2 2 4 4 3 2 2 2 3 3 2 2 2 2 3 5 5 4 5 5 6 5 6 9 10 10 9 9 9 9 9 10 10 11 10 9 11
27 28 27 28 26 25 25 24 23 23 22 22 20 20 19 19 18 17 17 16 15 13 12 11 10 10 10 10 9 8 8 7 6 6 6 5 5 4 5 5 5 4 3 3 2 2 2 2 1 1 1 3 3 2 2 2 2 2 1 1 1 1 3 5 4 2 3 6 7 6 5 7 11 12 11 10 9 9 10 11 10 10 10 10 10
27 27 27 27 25 24 25 24 23 23 22 21 20 20 19 19 18 17 16 15 15 13 12 11 10 9 8 8 8 7 7 6 5 6 5 4 4 4 3 4 4 3 3 1 1 1 1 1 1 0 0 1 2 2 2 1 1 1 1 1 1 0 2 4 3 1 3 6 7 6 6 5 9 13 12 11 10 10 10 11 11 11 11 11 11
28 28 28 26 24 23 23 24 23 23 22 21 20 20 19 18 17 17 16 15 14 13 12 10 9 9 8 7 7 6 5 5 4 4 4 4 3 3 2 2 2 2 1 0 1 1 1 0 0 1 1 1 1 2 1 1 1 1 1 1 1 1 1 3 3 3 2 5 6 7 8 6 9 12 13 13 12 11 11 11 12 11 11 11 11
27 28 27 25 23 21 22 23 22 22 21 21 21 20 20 19 17 17 16 15 13 12 11 9 8 8 7 7 6 6 5 5 4 4 4 3 3 2 2 2 2 2 1 2 3 3 2 1 1 2 1 2 2 2 2 2 2 2 1 0 1 1 1 2 3 4 4 4 5 7 9 8 10 12 12 12 12 12 11 11 12 12 12 11 12
26 27 26 23 23 22 22 22 22 22 21 21 21 21 20 19 18 17 16 15 13 12 10 9 8 7 7 6 6 6 6 5 4 4 4 3 3 3 3 3 3 3 3 3 4 4 3 3 2 2 3 3 3 3 3 4 3 2 1 1 1 1 2 2 2 3 4 4 3 6 9 9 9 11 11 11 11 12 11 10 12 13 12 12 13
25 26 25 22 21 22 22 22 22 22 22 21 21 21 21 20 18 17 17 16 14 13 12 10 9 7 7 7 8 7 7 6 5 5 5 4 4 4 4 4 4 4 4 5 5 4 3 4 3 3 4 3 3 4 4 5 4 4 2 1 2 3 4 3 3 4 4 4 3 5 8 9 10 10 11 10 10 10 10 9 11 13 13 13 13
25 26 25 21 21 22 22 22 22 22 23 22 20 21 21 21 19 18 17 15 15 14 14 13 11 9 8 9 9 8 7 6 6 6 6 6 6 5 5 5 5 5 5 6 6 4 4 5 4 4 4 4 5 5 5 5 5 4 2 2 5 5 5 5 3 4 4 4 4 5 6 8 10 11 10 9 8 10 10 8 10 12 12 12 12
23 25 25 22 21 23 22 23 23 22 24 23 22 21 20 19 19 18 18 17 16 16 15 15 13 11 11 11 10 9 8 7 7 7 7 7 7 6 6 6 6 6 6 8 7 5 5 5 5 5 6 6 6 6 6 5 5 5 3 2 5 6 5 5 4 4 4 4 5 5 5 6 9 11 10 10 10 11 11 9 9 12 12 10 11
23 25 25 23 21 22 23 23 23 23 24 24 23 23 21 19 18 18 18 19 19 17 17 16 14 14 13 12 10 9 10 9 9 9 8 8 8 7 7 7 8 8 8 8 7 6 6 5 6 6 7 7 7 7 7 6 7 7 6 4 5 5 6 6 6 5 4 4 5 5 4 4 6 10 11 11 13 13 13 12 11 12 12 10 11
23 24 24 23 22 22 23 23 22 23 24 23 23 23 22 21 20 19 19 19 18 17 17 16 15 15 13 12 11 11 11 10 10 11 10 10 9 8 8 8 8 9 9 8 7 7 6 6 7 8 8 7 7 8 8 8 8 9 8 7 6 6 6 7 6 5 4 4 5 5 5 4 5 8 11 12 13 14 15 14 13 13 13 12 12
23 24 24 23 23 23 23 23 22 22 23 24 23 23 23 23 22 21 19 19 18 18 17 16 16 16 15 14 13 13 12 11 12 12 12 11 10 9 9 8 8 9 10 9 8 7 6 7 8 8 8 8 8 8 9 9 9 10 10 9 8 8 8 7 6 5 4 5 5 6 7 8 8 9 11 11 12 15 15 15 15 15 13 12 13
24 24 24 23 23 23 22 23 23 23 24 23 24 24 24 23 23 22 20 19 19 18 17 17 17 16 16 15 14 14 13 13 13 12 12 13 11 11 10 9 9 9 9 9 9 8 7 9 8 8 9 9 9 9 10 10 11 12 12 11 9 8 8 8 7 6 5 5 6 7 9 11 12 12 12 12 12 14 16 17 16 16 14 13 14
22 22 23 23 23 23 22 23 24 24 24 23 24 25 25 24 23 22 20 20 20 19 18 18 17 17 16 15 15 15 15 15 14 13 13 13 13 12 11 11 11 10 10 10 10 9 9 10 9 8 9 9 9 10 11 12 12 13 13 11 9 8 8 8 9 8 6 5 5 7 10 11 12 14 14 14 14 14 16 17 18 18 17 16 15
21 22 24 23 23 23 22 23 24 24 23 23 22 22 22 22 21 21 21 22 22 21 20 19 19 18 17 17 17 16 16 16 15 14 13 13 14 12 11 11 11 10 10 10 10 10 10 10 9 8 8 9 10 11 12 13 14 14 13 11 10 10 9 8 8 9 7 5 5 7 10 10 12 14 14 14 15 15 16 18 19 20 19 17 17
23 23 24 24 23 23 22 23 23 22 22 21 21 22 22 22 21 21 23 24 23 22 21 21 20 19 18 18 17 17 17 17 16 14 13 13 14 12 10 10 11 9 9 10 11 10 10 10 9 8 9 9 10 12 13 14 14 14 14 12 11 11 10 9 8 8 7 6 5 7 10 11 11 13 14 14 14 16 17 18 19 20 19 17 18
22 23 25 25 24 24 23 23 23 22 23 23 24 24 25 24 24 23 23 23 23 22 22 21 20 19 19 17 17 17 18 17 16 14 13 13 13 11 10 10 10 9 9 11 11 10 10 9 9 9 10 11 11 12 13 14 14 14 14 13 11 10 10 9 8 8 8 7 6 6 9 11 11 12 13 14 14 15 17 17 19 19 19 17 17
22 24 25 26 25 24 24 25 25 24 25 26 26 27 27 26 25 25 24 23 22 22 21 21 20 19 18 17 17 17 17 16 15 13 12 13 12 10 10 11 10 9 10 11 10 9 9 9 10 10 11 12 12 13 14 15 14 14 14 13 11 9 10 9 7 7 8 8 7 6 8 9 9 10 12 13 14 16 17 17 18 18 19 18 17
23 24 25 25 26 25 24 26 26 26 26 26 27 27 27 27 26 24 24 23 22 22 21 21 20 19 18 17 17 17 16 15 14 13 12 12 11 11 11 10 10 10 10 9 8 9 9 9 10 12 13 13 13 14 15 16 14 12 12 12 10 9 9 8 7 7 7 7 6 6 7 8 8 9 11 13 14 16 17 17 17 18 19 20 20
23 24 26 25 26 27 26 25 25 26 25 24 25 25 25 26 26 24 23 22 22 21 21 21 20 19 18 17 17 16 16 15 14 12 12 12 11 11 10 10 10 9 9 9 8 9 10 11 12 13 14 14 14 15 15 16 14 11 10 10 10 8 7 7 7 7 7 6 6 6 6 7 7 8 10 12 14 16 16 17 18 18 20 21 22
24 25 27 26 26 28 26 24 24 25 23 22 23 24 23 25 25 23 22 21 21 21 21 20 19 18 17 17 16 16 15 14 13 12 12 12 11 11 10 10 10 8 8 9 9 10 12 13 13 14 15 15 15 15 15 15 14 11 9 9 8 7 6 5 6 6 6 6 5 5 5 6 6 7 8 10 13 14 14 16 17 18 18 19 21
25 25 26 26 27 28 26 23 23 25 24 22 23 23 22 24 24 22 21 20 20 20 20 19 18 18 17 16 15 15 15 14 13 12 12 12 12 11 11 11 9 7 8 10 11 13 14 15 15 15 15 15 16 16 15 15 14 11 10 9 8 6 5 5 6 6 6 6 5 4 3 4 5 5 6 8 10 12 14 14 15 17 17 17 18
23 24 25 26 27 27 26 24 25 26 25 24 23 23 23 23 23 22 21 21 20 20 20 18 18 17 17 16 15 14 14 13 13 12 12 12 12 12 11 9 7 7 9 11 13 14 15 15 15 15 15 15 16 16 16 16 14 11 10 9 7 5 4 4 5 6 6 6 5 5 3 3 4 4 5 7 9 10 12 12 14 15 16 17 18
22 24 26 26 26 26 27 27 27 27 26 25 25 25 25 24 23 22 22 21 21 20 20 18 18 17 16 15 14 14 14 13 13 12 12 12 12 11 10 8 7 9 11 12 13 13 14 14 14 14 13 13 14 15 16 15 14 11 10 9 6 5 3 3 4 4 5 5 5 4 3 3 4 3 4 6 8 9 10 11 13 14 16 17 19
24 25 26 25 25 26 26 27 28 28 28 26 26 25 24 24 23 22 21 21 20 20 19 18 18 16 15 14 14 14 14 13 13 13 13 12 12 11 9 8 8 9 11 12 12 12 12 13 12 12 12 12 13 14 14 14 13 11 10 9 7 5 4 3 3 2 4 5 4 4 4 4 4 4 3 3 6 9 10 10 11 13 15 17 19
25 25 25 25 25 25 26 27 27 28 28 27 26 25 24 23 22 21 20 20 20 19 18 18 17 16 15 14 14 14 14 14 13 13 13 12 12 10 8 7 8 10 11 11 11 10 11 11 11 10 11 10 11 12 13 12 12 11 10 10 8 6 4 3 3 3 4 5 5 3 3 4 5 6 5 3 3 6 8 10 10 11 13 16 18
25 25 25 26 25 25 25 26 27 27 27 27 26 24 23 22 21 20 19 19 19 19 17 16 16 16 15 15 14 15 14 14 14 13 13 12 12 10 7 6 7 11 11 10 9 9 9 9 9 8 8 8 8 9 10 11 11 11 12 11 9 7 5 4 4 3 4 5 4 3 3 3 4 5 5 4 3 4 7 9 10 10 11 14 16
26 25 25 25 25 24 24 25 25 26 26 26 25 24 22 21 21 20 19 19 19 19 18 17 16 16 16 16 15 15 15 15 14 14 13 12 11 9 6 5 7 10 10 8 7 7 7 7 7 5 5 6 6 7 9 11 11 12 13 11 7 6 6 5 5 4 4 5 4 3 3 3 4 4 4 4 5 5 6 8 10 11 11 12 14
27 26 25 25 25 24 24 24 25 25 26 26 25 24 23 22 21 20 20 20 20 20 19 18 17 17 17 17 17 16 16 16 15 14 13 13 11 9 7 6 7 9 8 8 7 6 5 5 4 3 3 4 6 7 8 10 11 11 10 7 6 6 5 5 6 5 5 4 4 3 3 3 4 4 4 4 5 7 8 9 10 11 12 12 13
27 27 27 26 26 25 25 25 25 25 26 27 27 26 25 23 22 22 22 22 21 20 20 19 19 18 18 18 18 17 17 17 16 16 14 14 13 11 10 8 7 8 7 7 6 5 4 4 3 4 4 5 6 7 7 9 9 7 6 5 4 4 3 3 5 6 5 5 4 4 3 4 5 5 3 3 5 7 8 9 10 11 12 13 13
27 28 28 27 27 26 26 26 25 25 27 28 28 27 26 24 23 23 23 22 21 21 20 20 19 19 18 18 18 18 18 18 18 17 16 16 15 14 13 11 9 9 8 7 6 6 5 5 5 6 6 6 7 8 8 7 5 3 4 4 3 4 2 0 3 5 5 5 5 5 4 5 5 5 3 0 2 5 7 9 10 11 12 13 13
27 29 28 27 27 26 27 27 26 26 27 28 28 27 25 24 22 22 22 21 21 20 19 18 18 18 18 18 18 19 19 19 19 19 18 17 17 17 16 13 11 10 9 8 8 7 7 6 7 8 7 7 7 8 8 6 5 3 2 2 1 2 1 1 5 6 4 4 5 5 5 6 6 5 4 2 1 2 5 7 8 9 10 11 12
27 29 29 27 26 27 27 27 27 27 27 27 28 26 24 22 21 20 19 19 19 18 18 19 19 19 19 18 18 18 19 19 18 19 20 20 20 19 18 16 14 13 12 11 10 10 9 8 8 8 7 7 7 7 7 7 6 4 1 0 1 1 0 2 6 6 2 3 5 6 6 6 6 6 5 4 3 3 4 6 7 7 9 9 10
26 30 31 30 28 27 27 28 28 28 28 27 27 26 24 22 21 19 17 16 17 16 16 19 21 20 20 19 18 17 18 17 17 18 20 22 22 22 21 20 18 17 16 15 13 12 10 9 8 6 6 6 7 7 8 7 6 5 3 1 1 0 0 2 5 3 2 5 6 5 5 6 7 6 6 5 4 4 5 6 6 7 8 9 10
27 30 32 32 31 29 27 27 28 28 28 28 26 26 25 24 22 21 19 18 18 19 19 20 21 21 20 19 17 17 17 18 18 19 20 21 22 22 22 21 20 19 19 17 15 13 12 10 8 7 6 6 7 8 9 7 5 4 5 5 3 3 3 2 2 1 4 6 5 5 6 6 6 7 7 6 5 5 5 6 6 7 8 9 10
26 29 30 30 30 29 27 27 28 29 29 28 27 26 26 25 24 24 23 22 22 23 23 22 21 21 20 19 18 18 19 20 20 20 21 21 22 22 21 20 19 19 19 19 17 15 13 11 10 9 8 7 7 8 8 6 3 3 3 4 5 6 7 5 2 1 3 4 4 6 6 5 6 7 7 6 5 5 4 4 5 6 7 8 9
13 16 20 25 28 28 27 27 27 29 30 29 29 28 28 27 26 25 25 25 24 24 23 22 21 20 20 20 19 19 20 21 21 21 21 21 22 22 21 20 19 17 18 19 18 16 13 12 11 11 9 8 8 7 7 6 4 3 2 2 2 3 5 5 4 4 2 1 4 4 3 5 7 6 5 5 5 4 4 4 4 5 6 6 7
17 19 20 21 24 27 27 26 27 29 30 30 30 30 30 29 28 27 26 26 26 24 23 22 22 21 21 21 20 19 20 21 21 20 20 20 21 22 21 20 19 18 17 18 18 16 13 12 12 12 11 9 8 6 7 7 5 4 2 2 2 2 2 3 4 6 4 2 2 2 3 6 7 5 4 4 4 3 4 4 4 4 5 6 7
29 30 27 23 24 27 27 27 27 29 30 31 31 31 31 31 30 29 28 28 27 25 24 23 23 22 23 23 23 21 21 21 21 20 20 20 20 21 22 20 19 18 17 17 16 15 13 13 12 13 13 10 8 6 7 7 6 5 5 4 4 3 3 3 5 6 4 3 3 3 5 5 5 5 3 3 3 4 4 5 5 5 5 6 6
27 27 26 24 26 28 28 28 28 30 31 31 32 33 33 32 32 31 30 30 29 27 26 25 24 23 23 25 25 23 22 22 22 21 21 20 19 20 21 20 18 17 16 16 15 14 14 14 13 13 13 11 8 6 7 7 6 7 6 6 6 5 4 4 4 5 4 4 3 4 5 5 6 6 3 3 6 6 6 6 6 6 6 6 7
Wind_Direction
159 156 152 151 150 153 152 150 149 145 142 141 141 141 141 139 137 135 134 134 133 134 134 133 130 128 128 123 117 115 116 117 117 119 117 114 111 110 109 109 106 101 106 106 99 93 89 88 83 81 79 76 75 75 75 77 77 75 77 78 77 76 75 75 79 84 86 90 96 101 105 108 108 106 107 108 105 107 106 105 106 102 97 100 105
157 155 153 150 151 155 153 149 149 146 144 144 143 143 143 142 140 137 136 135 134 133 132 130 128 127 127 121 114 110 110 111 109 108 108 109 107 107 107 110 110 102 102 100 95 90 86 83 81 80 79 77 75 78 82 87 87 87 89 86 83 82 80 77 79 87 91 88 93 100 103 106 107 109 113 111 107 107 106 106 108 102 96 101 110
153 155 153 149 150 156 154 149 149 146 145 145 145 145 145 145 142 139 138 137 134 133 131 129 127 126 126 121 115 112 111 110 110 110 111 111 108 107 107 106 105 100 98 94 91 89 88 85 84 82 80 80 81 84 88 91 92 97 105 99 92 90 88 86 84 88 93 90 94 102 104 107 108 111 114 115 115 111 110 111 108 101 101 107 112
153 154 153 150 150 156 154 150 150 148 146 145 146 146 146 148 145 141 140 137 134 134 132 130 128 127 126 120 114 113 111 109 108 109 108 106 104 105 104 103 102 104 104 97 93 92 91 90 89 85 83 87 92 93 95 99 99 103 110 108 105 100 94 94 92 90 97 100 102 110 113 114 112 113 114 117 117 114 114 111 104 102 109 115 114
155 154 154 152 151 157 155 152 152 150 148 147 147 147 147 149 148 145 141 136 134 135 134 131 128 126 124 119 112 109 110 110 109 109 108 105 105 101 96 96 100 107 109 103 100 98 96 97 95 90 91 98 102 99 101 105 105 109 110 112 115 113 106 102 101 96 101 104 106 114 116 117 117 118 120 122 120 117 112 105 107 114 118 122 121
156 155 156 154 152 157 157 154 154 152 150 149 149 149 148 149 151 148 143 139 137 137 135 132 128 126 123 118 114 112 112 111 110 110 110 109 108 104 101 99 97 99 102 103 103 102 103 102 99 97 103 109 107 108 112 107 105 110 108 114 117 119 121 112 109 108 112 112 110 111 110 114 117 122 128 130 128 126 120 116 122 126 123 127 131
157 157 158 157 155 157 158 156 155 154 151 151 150 150 150 150 152 150 145 141 140 138 136 133 128 125 122 119 116 116 114 114 114 111 109 109 108 107 107 106 102 102 103 105 106 107 105 103 103 104 112 114 109 114 116 112 111 111 110 118 114 117 124 115 106 104 119 131 134 130 122 124 122 129 140 137 134 131 128 127 128 128 130 135 136
158 159 159 159 156 157 160 158 157 155 152 152 152 152 151 151 152 151 148 143 140 139 137 135 130 125 123 122 121 121 121 119 117 113 113 112 110 110 108 106 106 107 109 111 112 112 107 106 108 108 114 114 110 110 106 111 114 111 112 123 120 120 122 116 109 96 100 125 153 155 147 145 137 145 150 141 139 137 133 130 128 133 138 139 139
160 161 160 160 159 159 160 159 158 156 154 154 154 153 153 153 153 153 149 144 141 140 138 136 133 129 126 126 127 128 127 124 121 119 120 117 113 111 109 107 106 105 107 110 109 110 108 109 110 111 114 108 102 102 112 123 117 110 106 116 127 137 143 139 134 115 97 99 146 158 157 153 144 146 147 144 146 142 139 136 133 138 141 142 141
162 162 162 162 161 161 162 161 160 158 157 156 156 155 155 155 155 154 151 145 144 144 141 135 133 133 130 130 131 132 130 128 127 130 127 121 117 112 112 111 110 112 112 109 107 109 111 110 113 117 116 112 113 126 179 170 125 116 118 132 145 168 185 174 167 156 159 185 158 156 157 158 148 138 138 144 149 145 143 142 138 140 144 145 144
163 164 164 164 163 163 163 163 162 161 160 158 158 157 157 158 157 157 155 150 148 147 143 138 138 139 137 135 136 136 135 134 136 139 131 122 120 118 118 116 118 120 116 112 107 109 111 110 115 121 120 127 152 168 183 189 144 132 138 163 185 196 207 206 206 210 245 239 195 162 156 164 158 141 144 153 148 147 146 144 142 142 145 145 144
165 165 165 166 166 166 165 165 165 164 163 162 162 161 160 160 160 160 158 154 150 148 146 145 146 145 143 142 142 142 141 142 148 144 133 127 124 121 120 119 123 121 114 105 102 106 107 109 113 116 119 130 159 178 166 166 138 119 130 175 196 210 217 212 220 234 247 216 187 179 164 166 169 155 153 160 151 150 150 148 148 147 151 149 149
165 166 166 166 168 169 167 166 167 167 165 165 166 165 164 163 163 164 161 157 153 152 152 152 150 148 149 146 146 150 148 151 158 149 139 137 133 129 130 129 125 118 111 102 103 101 102 110 110 110 102 124 145 163 147 140 120 100 125 224 224 210 204 202 215 230 205 185 179 192 186 167 174 171 163 164 159 156 157 156 156 155 159 160 159
165 167 166 166 169 172 169 167 170 170 168 166 168 168 168 169 169 169 167 163 159 156 156 154 153 152 155 151 149 156 157 160 165 156 150 151 151 148 144 140 130 120 116 106 113 79 89 114 95 114 64 141 158 181 164 146 151 159 192 266 290 243 189 202 211 203 167 179 183 195 200 180 173 174 170 169 169 167 164 162 158 157 161 166 167
167 167 165 167 169 171 170 170 172 173 172 169 170 171 172 174 175 176 174 171 164 161 160 160 163 159 160 160 158 163 167 169 172 165 162 170 168 162 161 157 147 141 143 284 290 302 298 121 323 257 255 242 223 226 206 202 250 245 222 241 281 252 213 217 217 226 217 205 208 207 205 191 169 166 168 168 170 173 172 168 161 160 161 165 171
170 169 166 167 169 170 171 173 175 174 175 176 176 175 177 180 181 181 180 178 171 169 169 168 173 169 168 173 174 180 181 180 184 175 173 185 189 193 200 206 202 204 228 270 286 290 296 299 271 265 278 274 269 270 272 270 256 249 241 282 291 276 242 234 236 234 232 232 225 213 204 195 175 164 166 168 169 173 177 177 167 164 164 165 170
173 172 168 167 171 173 173 174 176 174 178 182 183 183 183 185 186 187 189 189 185 186 186 181 188 186 180 188 195 199 196 193 193 189 193 202 214 228 227 245 246 244 256 269 279 286 297 295 272 273 289 287 280 274 269 271 273 272 271 2 333 285 235 229 256 243 228 230 215 202 200 197 188 177 176 179 181 177 178 184 174 168 166 166 170
175 175 171 168 172 178 175 174 177 175 180 185 187 189 190 192 193 195 199 200 200 204 203 199 204 200 193 203 212 214 210 202 199 203 214 220 232 243 243 258 266 267 272 277 281 286 295 287 277 283 284 281 274 265 263 263 268 271 276 316 272 240 225 216 232 244 232 221 193 191 201 204 204 199 196 194 194 183 180 191 182 173 169 170 173
175 176 175 170 173 182 179 175 180 179 181 185 187 190 194 197 197 200 205 207 209 213 212 208 206 202 202 208 213 215 214 211 208 214 225 235 242 248 254 261 273 279 280 283 285 287 286 284 287 285 279 278 277 272 269 267 265 268 272 279 266 250 236 228 223 237 237 226 207 193 204 213 212 211 211 205 203 193 189 201 191 178 173 175 177
176 177 178 176 175 183 185 180 182 184 183 185 186 188 191 195 198 200 204 209 212 214 214 214 210 206 208 209 209 211 214 219 220 225 229 239 247 250 260 267 275 279 280 282 284 284 281 287 289 280 278 280 283 282 281 283 282 281 287 275 268 268 264 257 245 243 239 232 228 212 206 215 215 213 216 212 210 204 193 200 201 184 176 181 185
178 180 180 180 179 183 188 186 184 187 187 186 187 188 189 191 197 200 201 207 210 211 213 216 215 209 208 208 207 212 220 225 228 233 233 240 249 250 259 270 276 276 277 280 283 282 282 288 286 280 282 284 286 289 296 304 302 301 309 302 276 276 275 268 259 253 250 235 230 221 207 209 214 217 220 216 213 209 197 197 204 193 179 184 197
181 184 184 183 184 184 190 192 187 189 191 189 189 189 190 189 192 197 201 206 209 211 213 212 213 208 206 209 212 220 227 229 233 236 236 239 246 250 256 263 272 279 281 282 281 282 285 285 282 286 289 291 291 297 311 317 315 314 316 308 291 280 266 260 260 261 262 250 230 211 201 209 216 218 224 221 217 215 206 201 204 203 189 183 197
183 186 187 186 187 188 191 195 191 191 193 193 192 192 195 193 190 193 197 203 207 211 211 208 209 206 205 213 220 228 232 233 238 238 239 241 245 249 254 258 264 275 283 284 283 283 286 281 282 290 291 289 290 303 316 317 317 318 317 307 294 284 272 268 275 282 278 262 240 215 205 211 218 221 226 227 224 219 212 206 204 209 203 188 195
185 188 190 189 191 191 191 195 195 193 194 195 196 197 198 196 193 193 195 198 203 208 210 209 211 210 210 218 225 232 235 235 239 240 242 243 243 243 245 248 251 259 268 275 279 279 276 273 278 285 287 288 294 306 311 311 313 315 316 308 296 287 279 283 296 305 305 277 247 226 218 216 217 223 225 225 224 222 216 210 208 211 211 201 199
183 188 193 193 193 193 191 194 197 196 196 197 200 202 199 197 196 194 197 201 204 208 212 214 215 217 219 224 228 231 233 235 238 240 242 243 244 241 238 240 247 251 255 265 272 271 270 274 281 284 289 295 301 305 306 309 311 312 312 304 297 294 288 292 299 301 305 294 258 233 228 225 223 223 223 221 217 219 218 213 210 210 211 207 202
182 187 194 196 197 197 196 197 199 199 200 203 207 210 207 205 203 198 202 207 209 211 213 217 218 220 223 226 228 229 231 235 237 240 243 244 243 241 240 241 246 251 256 266 269 269 274 281 288 289 292 295 296 300 304 308 309 310 308 299 296 300 301 302 298 295 295 292 267 237 231 229 226 224 221 220 217 215 215 213 212 209 210 209 205
182 188 193 195 197 199 199 201 203 203 204 207 211 214 216 216 212 207 208 209 210 212 214 217 219 220 223 225 228 229 232 237 239 242 243 242 241 240 241 242 244 251 260 267 267 270 277 283 289 291 293 293 295 299 302 304 305 308 303 297 297 298 303 303 294 289 288 281 263 236 227 226 226 225 222 223 222 218 214 211 212 211 210 210 208
182 187 191 192 195 198 199 200 202 203 203 205 207 208 210 212 211 209 208 208 209 212 215 217 218 220 223 226 229 231 235 238 240 243 242 238 238 238 238 242 246 253 259 262 267 272 278 284 289 289 291 294 300 303 303 304 305 304 299 296 295 295 302 304 292 285 283 279 271 244 225 225 228 224 221 223 221 220 219 214 213 213 211 211 211
184 187 190 192 194 197 200 202 200 200 202 203 204 205 206 207 208 208 207 207 210 212 215 217 219 221 224 228 229 231 234 236 238 240 238 234 235 237 240 245 251 254 257 261 268 277 282 286 288 289 292 297 303 306 307 306 305 303 298 296 295 296 302 302 295 289 286 279 276 263 230 221 227 226 221 218 217 220 222 219 217 215 213 213 213
188 187 190 193 194 196 199 202 201 200 202 203 205 207 208 209 209 209 208 209 212 214 217 219 221 224 225 228 229 229 232 235 236 236 234 233 234 238 244 251 255 255 260 265 272 281 285 287 289 291 294 298 302 305 307 306 304 302 298 301 304 302 299 298 299 301 298 283 270 267 240 211 212 226 223 215 217 221 220 218 219 218 217 216 216
188 189 191 193 194 196 197 198 199 199 201 203 205 207 209 211 210 211 211 212 215 217 219 222 224 226 226 228 230 230 232 233 233 234 234 232 234 241 247 252 254 257 267 274 280 283 285 286 289 291 294 298 302 304 306 304 302 301 299 306 311 305 295 294 305 308 304 291 270 261 247 212 204 222 223 215 216 219 220 218 218 218 218 217 217
189 192 193 193 194 196 196 196 197 197 198 201 203 206 208 210 211 211 211 213 216 218 221 224 227 229 229 230 230 229 230 232 231 232 232 233 238 243 245 249 255 263 274 281 286 285 285 285 287 290 294 298 300 302 304 303 303 302 303 310 309 301 291 297 317 315 305 300 282 262 242 215 205 214 215 214 215 218 222 221 220 220 219 218 218
191 193 193 194 196 197 195 195 195 197 200 202 203 205 209 211 212 213 212 214 219 222 225 228 232 233 231 229 229 229 230 231 231 231 232 236 241 242 245 250 259 274 282 287 288 287 286 285 286 289 293 297 299 303 302 302 305 306 310 315 308 301 303 318 329 327 322 316 297 272 232 203 204 213 213 212 216 220 221 221 224 226 223 221 220
190 191 194 195 198 199 198 197 197 200 203 206 206 208 212 214 215 216 216 219 223 227 230 232 235 234 230 228 228 229 230 230 230 232 234 238 241 244 249 254 267 285 289 290 289 287 285 282 283 286 291 295 298 302 303 302 305 308 315 319 311 308 320 331 334 339 342 336 311 284 241 201 205 217 221 214 216 220 218 218 224 227 226 225 224
191 191 195 196 198 200 200 201 201 202 205 209 211 214 218 218 219 220 219 222 226 230 233 233 235 233 229 227 228 229 228 229 231 233 236 238 242 246 253 264 283 293 293 295 293 284 278 276 279 284 287 293 297 301 304 301 300 304 315 317 311 315 327 331 335 344 345 343 327 306 284 242 221 218 220 211 213 218 217 218 223 226 226 225 225
196 195 196 196 198 201 202 203 203 204 207 211 215 218 222 223 224 224 224 226 228 231 232 233 233 231 229 227 227 227 227 229 232 235 237 239 244 249 258 277 292 295 297 298 290 275 270 271 274 280 285 294 299 301 304 302 296 298 309 312 309 315 323 327 331 335 336 339 338 335 326 298 277 269 264 221 212 217 220 222 224 226 225 223 223
199 197 196 196 198 202 204 205 205 207 208 211 215 219 222 224 226 228 229 230 228 229 230 231 230 228 229 227 224 226 228 230 232 235 236 239 246 252 265 282 293 297 297 291 279 267 266 267 269 277 284 293 299 301 305 305 296 292 301 308 307 308 311 317 327 333 339 336 326 324 328 311 297 294 295 284 227 214 219 227 231 230 228 227 226
200 198 198 198 199 202 205 206 208 210 210 211 214 219 222 225 227 231 234 231 228 228 230 231 229 228 228 228 227 227 229 230 231 233 235 239 244 252 264 277 294 299 291 278 267 258 257 261 267 274 278 287 296 299 301 301 296 292 299 306 305 302 302 304 307 326 343 335 314 301 311 318 313 303 298 294 273 233 220 227 234 236 236 234 230
199 198 198 199 199 202 205 207 209 210 211 212 214 217 220 223 226 231 233 231 229 229 232 232 229 229 229 230 231 229 229 229 230 232 234 237 240 245 253 262 292 298 281 261 250 243 244 251 259 264 271 286 300 303 299 297 297 297 301 306 306 303 298 294 287 296 319 318 312 319 317 324 333 316 296 289 280 263 242 233 233 237 238 236 232
197 196 195 196 198 199 202 206 210 211 209 209 211 213 216 219 223 226 227 228 228 230 232 233 232 231 231 232 233 230 229 229 229 232 233 234 234 237 239 246 282 291 270 248 237 231 231 237 246 262 283 301 309 309 306 303 302 303 307 312 321 316 298 284 275 275 295 297 298 321 327 329 337 322 286 260 258 257 252 245 238 236 236 234 231
193 192 192 193 196 197 199 204 209 210 207 207 209 210 211 212 216 219 223 225 227 230 233 234 234 234 233 234 235 232 230 229 229 230 230 232 233 234 234 235 261 274 255 236 229 221 217 223 247 281 299 310 311 313 317 311 307 314 323 325 343 347 317 278 273 270 277 279 273 290 316 334 344 341 305 243 242 245 244 244 240 235 232 229 227
187 189 189 191 194 196 198 202 206 208 208 209 210 211 211 210 211 216 221 224 226 230 233 234 234 236 236 236 236 235 232 230 231 231 231 232 234 235 236 233 245 258 241 218 213 210 213 229 261 288 298 303 303 307 316 308 296 315 331 325 359 16 14 351 316 292 269 265 266 277 304 331 353 0 0 313 238 239 239 241 240 237 234 231 230
185 188 190 188 190 194 198 202 204 207 210 212 213 213 214 213 214 218 221 224 227 231 233 234 236 239 240 239 237 237 235 233 232 233 232 233 236 238 240 237 236 243 233 212 209 214 228 250 272 286 291 294 297 304 310 298 272 278 329 325 349 9 9 32 349 327 279 269 277 284 301 321 341 348 343 343 311 250 242 241 242 240 237 236 235
186 189 190 187 188 193 197 201 205 208 211 213 215 216 216 215 218 222 226 228 230 233 236 236 237 240 241 239 236 234 234 234 234 234 234 234 236 239 243 243 239 238 231 220 221 227 240 256 269 279 283 290 299 306 308 300 276 257 265 99 163 8 313 319 338 335 299 292 293 293 304 315 322 323 317 309 296 282 259 246 245 242 236 234 232
189 190 192 191 191 194 197 201 206 210 213 216 217 217 216 215 216 219 225 228 229 231 236 236 236 238 240 237 233 231 233 234 235 237 237 237 240 242 247 250 248 242 234 229 229 231 240 249 256 267 278 290 301 304 304 305 290 255 231 209 144 59 229 313 330 325 311 312 300 289 303 315 313 305 301 296 288 283 270 256 249 243 238 232 226
196 196 197 197 196 196 197 201 206 210 214 217 217 216 215 214 212 211 213 216 220 224 228 230 232 233 234 232 231 232 235 237 239 240 240 241 243 246 250 253 255 249 239 235 234 234 240 245 246 253 271 291 301 299 297 304 299 260 245 247 253 257 257 307 347 324 313 311 294 288 298 306 307 297 289 284 284 284 276 262 252 244 239 232 225
201 200 200 199 199 200 199 201 206 210 213 215 216 215 215 214 214 212 212 212 216 221 224 226 229 231 232 232 233 235 238 241 243 244 245 244 245 248 252 256 259 253 242 239 239 239 242 246 245 250 265 285 294 293 291 292 284 258 252 254 256 260 263 271 261 271 323 314 295 300 297 294 301 299 287 273 274 283 279 263 253 245 237 232 226
200 204 205 204 202 201 202 204 207 210 212 213 214 214 214 215 216 215 214 215 219 221 222 224 228 231 234 234 236 240 243 244 246 250 250 248 246 247 251 256 258 254 244 240 241 243 245 246 245 249 262 275 283 285 278 271 264 260 259 253 264 271 268 263 248 246 270 305 303 305 303 310 311 300 280 268 271 279 283 272 259 248 236 234 228
195 208 216 215 208 204 204 206 208 210 211 212 213 214 214 215 216 214 214 217 222 224 223 226 230 234 236 237 239 244 244 243 247 251 252 250 248 246 248 252 253 252 246 240 239 241 246 248 249 252 260 270 275 270 262 261 264 268 273 269 266 258 257 255 236 228 223 245 286 293 309 321 324 311 278 269 273 274 284 284 269 255 238 233 232
199 205 211 214 211 208 206 206 208 210 210 210 211 212 213 214 215 214 214 216 221 224 225 228 231 234 237 237 240 243 243 242 245 249 251 250 248 244 245 248 251 252 246 238 235 236 243 250 257 259 259 263 268 259 253 258 266 276 284 281 269 248 231 219 214 219 222 230 243 272 291 304 317 319 303 269 280 280 279 280 270 263 249 239 235
202 203 205 207 207 208 207 207 209 210 210 210 210 211 211 211 214 215 215 217 219 220 222 224 227 229 232 234 236 238 240 242 244 246 250 250 245 241 241 246 250 248 240 233 232 236 245 253 262 265 258 256 261 256 247 253 266 275 284 289 283 269 249 234 230 231 225 221 228 267 286 290 293 298 300 302 301 285 269 270 263 257 252 246 241
Height
808 809 811 812 813 814 815 816 817 817 819 820 821 822 823 824 825 826 827 828 829 830 831 832 833 833 834 834 835 836 836 837 838 838 839 839 839 840 840 840 841 841 842 843 844 845 846 847 847 847 848 848 848 848 849 849 849 849 850 850 850 850 850 850 851 851 850 849 851 852 852 852 853 853 853 853 853 854 854 854 855 854 854 856 857
806 809 810 812 814 815 817 817 818 819 820 821 822 823 824 825 826 827 828 829 830 831 832 833 834 835 835 836 837 837 838 839 840 840 841 841 842 842 842 842 843 843 844 845 846 847 848 848 848 848 849 849 848 848 848 849 849 849 850 850 850 851 851 852 852 854 853 852 852 853 853 854 855 855 855 855 855 855 855 856 856 855 855 857 858
805 809 810 812 814 816 817 818 819 820 821 822 823 824 825 826 827 828 829 830 831 832 833 834 835 836 836 837 838 839 840 840 841 842 842 843 843 844 844 845 844 845 846 847 847 848 849 850 850 850 850 849 849 848 848 848 849 849 849 850 851 851 852 853 854 855 855 854 854 854 854 855 856 857 857 857 857 857 856 857 856 856 857 859 860
805 808 810 812 814 816 818 819 820 820 822 822 824 824 825 826 827 829 830 831 832 833 834 835 836 836 837 838 839 840 841 842 842 843 844 844 845 846 846 847 847 847 848 848 849 850 851 851 851 851 850 850 849 848 848 849 849 849 850 851 851 852 853 854 855 855 856 855 855 854 854 855 856 858 858 858 858 858 858 857 856 857 859 861 861
805 808 810 812 814 817 818 819 820 821 822 823 824 825 826 827 828 830 831 832 833 834 835 836 837 837 839 839 841 842 842 843 844 844 845 846 846 847 848 848 849 849 849 850 851 851 852 852 852 852 851 850 850 850 850 849 849 850 851 851 852 853 854 855 855 856 857 857 855 854 855 855 856 858 859 859 859 859 858 857 858 860 862 862 863
805 808 810 812 815 817 819 820 821 822 823 824 825 826 827 827 829 830 832 833 834 835 836 837 838 839 840 841 842 843 844 844 845 846 846 847 847 848 849 850 850 850 851 852 852 853 853 853 853 853 852 851 851 851 851 851 851 852 852 853 853 854 855 855 856 856 857 858 857 855 855 856 857 858 859 860 860 860 860 860 862 863 863 864 864
805 808 810 813 815 817 819 821 822 823 824 824 826 827 827 828 830 831 833 834 835 836 837 838 839 840 841 842 843 844 845 845 846 847 847 848 848 849 850 851 851 852 852 853 853 854 854 854 854 854 853 852 852 852 853 852 853 853 854 854 855 855 856 856 857 857 858 858 859 857 857 857 858 859 860 861 861 861 862 863 863 864 864 865 865
806 809 811 813 815 818 820 821 823 824 825 825 827 828 828 830 831 832 834 835 836 838 839 839 840 841 842 843 844 845 846 846 847 847 848 849 850 850 851 851 852 853 853 854 854 854 855 856 856 855 854 853 853 854 854 854 854 854 855 855 855 856 856 857 857 858 858 859 859 859 859 859 860 860 861 861 861 861 862 863 864 864 865 865 866
807 809 811 814 816 819 821 822 824 824 826 826 828 829 830 831 832 833 835 836 837 839 841 841 842 843 843 844 845 846 847 847 848 849 850 850 851 851 852 852 853 854 854 854 855 855 856 856 856 856 856 855 855 855 855 855 855 856 856 856 856 856 857 857 857 858 858 859 859 860 860 860 860 860 861 861 862 862 863 864 864 865 865 866 866
807 810 812 815 817 819 821 823 824 826 827 827 829 830 831 832 833 835 836 837 839 840 842 842 843 844 845 845 846 847 848 849 849 850 851 851 852 852 853 853 854 855 855 855 855 856 856 857 857 857 857 857 857 856 856 856 856 857 857 857 857 857 857 857 858 858 858 859 859 859 860 860 860 860 861 861 862 863 863 864 865 865 866 866 867
808 811 813 815 818 820 822 824 825 826 827 828 830 830 832 833 834 836 837 839 840 841 842 843 844 845 846 847 847 848 849 850 851 851 852 853 853 853 854 854 855 855 855 856 856 856 857 857 857 857 858 858 858 857 857 857 857 857 858 858 857 857 857 857 857 858 858 858 859 859 859 860 860 860 861 862 863 863 864 865 865 866 866 867 867
809 811 814 817 818 820 822 824 826 827 828 829 830 831 833 834 835 836 838 840 841 842 843 844 845 846 847 848 848 849 850 851 852 853 853 854 854 854 854 855 855 856 856 856 856 857 857 857 857 857 858 859 858 857 858 858 857 857 858 858 858 858 858 858 858 858 858 858 859 859 859 860 860 861 861 862 863 864 864 865 866 867 867 867 868
810 812 815 817 819 821 822 825 827 828 829 830 831 832 834 835 836 837 839 841 842 843 844 845 846 847 848 848 849 850 851 852 853 854 855 855 855 855 855 856 856 857 857 857 857 857 857 857 857 857 858 858 858 858 858 858 858 858 858 859 859 859 858 859 859 858 858 858 858 859 859 859 860 861 861 862 863 864 864 865 866 867 868 868 869
811 813 816 818 819 821 822 825 827 829 829 830 832 833 835 836 837 838 840 841 842 844 844 845 846 848 849 849 849 850 851 852 853 854 855 856 856 856 856 856 856 857 857 857 857 857 857 857 857 857 857 858 858 858 858 858 858 858 858 859 858 858 858 859 859 858 858 858 859 859 859 860 860 861 862 862 863 864 864 865 866 867 868 868 869
811 814 817 819 820 821 823 825 827 829 830 831 833 834 835 836 838 839 841 842 843 844 845 846 846 847 849 850 850 851 852 852 854 855 856 856 857 857 857 857 857 858 858 858 857 857 857 857 857 857 857 857 858 858 858 858 858 858 858 858 858 858 858 858 859 858 858 858 859 859 859 860 860 861 862 862 863 864 864 865 866 867 868 868 869
812 815 818 819 820 822 824 826 827 829 830 832 833 834 835 836 838 840 841 843 844 845 846 847 847 847 848 850 851 851 852 853 854 855 856 857 857 857 857 857 857 858 858 858 857 857 857 857 857 857 857 857 858 858 858 857 857 857 858 858 859 859 859 859 859 858 858 858 858 859 859 860 861 861 862 863 863 864 865 865 865 866 867 868 869
813 816 818 820 821 822 824 826 827 828 830 832 833 835 836 837 839 840 842 843 844 845 846 847 847 848 849 850 851 852 853 853 854 855 857 857 857 858 858 858 858 858 858 858 857 857 857 857 857 857 857 857 858 858 857 857 856 857 858 859 859 859 859 858 858 858 858 858 857 858 859 860 861 861 862 863 863 864 865 865 866 866 867 868 869
814 816 819 821 821 822 824 825 826 827 830 832 834 836 837 838 839 840 842 842 843 845 846 847 847 848 849 850 851 853 853 853 854 856 857 857 858 858 858 858 858 858 858 858 857 857 857 857 857 857 857 857 857 857 857 857 857 857 858 860 859 859 858 857 858 858 858 858 858 858 859 860 861 861 862 862 863 865 866 866 866 867 867 868 869
815 817 819 821 822 822 823 825 826 828 830 832 835 836 837 838 839 840 841 842 843 844 846 847 847 848 849 850 852 853 854 854 855 856 857 858 858 858 859 859 858 858 858 857 857 857 857 857 857 857 856 857 856 856 856 856 856 857 858 860 859 859 860 858 858 858 858 858 858 858 858 859 860 860 862 863 864 864 865 867 867 867 867 869 870
816 817 820 822 823 823 823 825 827 829 831 832 834 835 837 838 839 840 841 842 843 844 845 845 847 848 850 851 852 853 854 854 855 856 856 857 858 858 859 859 859 858 858 857 857 857 857 857 857 856 856 856 856 855 856 856 856 856 858 860 859 859 860 860 858 858 857 858 858 858 858 859 859 860 861 862 863 863 864 867 868 867 868 869 870
817 818 820 822 824 824 824 825 827 829 831 832 834 835 836 838 839 840 841 842 843 844 844 845 846 848 850 851 852 853 854 854 855 856 856 857 858 859 859 859 859 858 857 857 856 857 857 857 856 856 856 855 855 855 855 855 855 855 858 860 860 860 859 859 858 857 857 857 857 858 858 858 858 859 860 861 862 862 863 865 867 867 867 869 871
816 818 820 822 824 825 825 825 827 829 830 832 834 834 836 837 839 840 841 842 842 844 844 845 847 848 850 851 852 853 853 854 854 855 856 857 858 859 859 859 859 858 857 856 856 857 857 857 856 855 855 855 855 854 854 854 854 854 857 858 860 860 858 858 857 856 856 856 857 857 858 858 858 858 859 860 861 862 863 864 865 867 866 866 870
815 817 819 821 823 825 825 826 827 829 830 832 833 834 836 836 838 839 840 841 842 843 844 845 847 848 849 850 852 852 853 854 854 856 856 857 858 859 859 859 858 857 857 856 856 856 857 856 856 855 855 854 854 854 853 853 853 853 855 856 857 858 857 856 856 855 855 855 856 857 857 857 857 857 857 858 860 860 862 863 863 866 866 865 868
814 816 818 821 823 824 826 826 827 829 830 832 833 834 836 837 838 839 840 841 842 843 844 845 847 848 849 850 851 852 853 853 854 855 856 857 858 858 858 858 857 857 857 856 856 856 856 856 855 855 854 854 853 853 854 853 853 853 853 854 855 856 855 854 853 853 853 854 855 856 856 856 856 856 856 857 858 859 861 862 862 864 865 866 867
814 816 817 819 822 824 825 826 828 829 830 831 833 834 835 836 837 839 841 842 843 843 844 845 846 847 848 849 851 852 852 853 854 855 856 857 857 857 857 857 857 856 857 856 856 856 856 855 855 854 854 853 853 853 853 853 853 852 852 852 853 853 853 853 852 852 852 853 854 855 855 855 855 855 855 856 857 858 859 860 861 862 864 865 867
814 816 816 818 820 822 824 825 827 828 830 831 832 833 833 835 836 839 841 842 843 843 844 845 846 847 848 849 850 851 852 852 853 854 855 856 856 856 856 856 856 856 856 856 856 856 855 855 855 854 854 853 853 853 853 853 852 852 851 851 851 851 851 851 851 851 851 852 853 853 853 854 854 854 855 856 856 857 859 860 860 861 862 864 865
812 814 816 818 819 821 823 824 825 827 829 830 831 832 832 834 836 839 841 842 842 843 844 844 845 846 848 849 850 850 851 852 853 854 855 855 855 855 856 855 855 856 856 855 855 855 855 854 854 854 854 853 853 853 853 852 852 851 851 851 851 851 850 850 850 850 850 851 851 852 852 852 853 854 854 854 855 856 857 859 859 860 861 862 864
811 813 815 817 819 820 822 823 825 826 828 830 832 833 834 836 837 840 841 841 842 842 843 844 845 846 847 848 849 850 850 851 852 854 854 854 855 855 855 855 855 855 855 855 855 855 854 854 854 854 854 854 853 853 852 852 851 851 850 850 851 850 849 849 849 849 849 850 850 851 851 851 852 853 853 853 854 855 856 857 858 859 860 861 862
810 812 814 816 818 819 821 823 824 826 828 830 832 834 835 837 838 839 839 840 841 842 843 843 844 845 847 847 848 849 849 850 852 853 853 853 854 854 854 855 855 855 855 855 855 854 854 854 854 854 854 853 853 853 852 851 851 850 849 849 850 849 848 848 848 848 848 848 849 849 850 851 852 852 852 853 854 855 855 856 856 858 859 860 861
808 811 813 814 816 818 820 822 823 825 827 829 831 832 834 835 836 837 838 839 840 841 842 843 844 845 846 847 847 848 849 850 851 852 852 853 853 853 854 855 855 855 855 854 854 854 854 854 854 853 853 853 853 853 852 851 850 850 849 848 848 847 847 847 847 847 846 847 847 848 849 850 852 851 851 852 853 854 855 855 855 857 858 859 860
808 810 811 813 815 817 818 820 822 824 826 827 829 830 832 833 834 836 837 838 839 840 841 842 843 844 845 846 847 847 848 849 850 851 852 852 853 853 854 854 855 855 854 854 854 854 854 854 854 853 853 853 853 852 852 850 850 850 849 848 847 847 847 846 846 846 846 846 846 847 847 849 851 850 850 851 852 853 854 854 855 856 857 858 859
807 808 810 812 814 815 817 819 821 823 825 826 827 829 830 831 833 834 836 837 838 840 841 842 842 843 844 845 846 847 847 848 849 850 851 852 852 853 853 854 854 854 854 854 854 854 854 854 853 853 853 852 852 852 851 850 849 849 848 848 847 846 846 846 846 846 845 845 845 846 846 847 849 849 849 850 851 851 852 853 854 855 856 857 858
805 807 809 811 812 814 816 818 820 821 823 824 826 827 829 830 832 833 835 836 837 839 840 841 841 843 844 844 845 846 847 848 848 849 850 851 852 852 853 853 854 854 854 854 854 854 853 853 853 853 853 852 852 852 851 850 849 849 848 847 846 846 846 845 845 845 845 844 844 844 845 846 846 847 848 849 849 849 850 851 852 854 854 855 857
805 807 809 810 811 813 815 816 818 820 821 823 825 826 827 829 831 832 834 835 836 838 839 840 841 842 843 844 844 845 846 847 848 849 850 850 851 852 852 853 853 854 854 854 853 853 853 853 853 853 853 852 852 851 851 850 849 848 847 847 846 846 845 845 845 844 844 843 843 843 844 844 845 845 846 847 848 847 848 850 851 852 852 853 855
804 806 807 809 810 812 813 815 816 818 820 822 823 825 826 828 829 831 833 834 835 837 838 839 840 841 842 843 844 844 845 846 847 848 849 850 851 851 852 852 853 853 853 853 853 852 852 852 852 853 852 852 852 851 850 850 849 848 847 847 846 845 845 845 845 844 844 843 843 843 842 843 844 845 845 846 846 847 847 848 849 850 851 851 853
802 804 806 808 810 811 812 814 815 817 818 820 822 824 825 827 828 830 832 833 834 835 836 838 839 840 841 842 843 844 845 846 847 848 848 849 850 851 851 852 852 852 852 852 852 851 851 852 852 852 852 852 851 851 850 849 849 848 847 847 846 845 845 845 844 844 844 843 843 842 842 842 842 843 844 845 845 845 846 847 848 848 849 850 851
800 803 804 806 808 809 811 812 814 815 817 818 821 822 824 826 827 829 831 832 833 834 835 837 838 839 840 841 842 843 844 845 846 847 848 849 850 850 851 851 851 851 851 851 851 851 851 851 851 852 852 852 851 851 850 849 849 848 847 847 846 845 845 844 844 844 843 843 843 842 842 841 841 841 842 843 843 844 844 845 846 846 847 848 849
798 801 803 805 806 808 810 811 813 814 816 817 819 821 823 825 827 828 829 830 832 833 834 836 837 838 839 840 841 842 843 844 845 846 847 848 849 850 850 851 851 851 850 850 850 851 851 851 851 851 851 851 851 851 850 849 849 848 847 846 845 845 844 844 844 844 843 843 843 842 842 841 841 840 840 841 841 842 843 843 844 845 845 847 848
797 799 801 804 805 808 809 810 812 813 815 816 818 820 822 824 825 827 828 829 830 832 833 834 836 837 838 840 841 841 842 843 844 845 846 847 848 849 850 850 850 850 850 850 850 850 850 850 850 851 851 851 851 851 850 849 849 848 847 845 844 844 844 844 844 844 843 843 843 842 841 841 840 840 839 839 840 841 841 842 842 843 844 845 846
795 797 800 802 804 807 808 810 811 812 814 815 817 818 820 822 824 825 827 827 829 830 832 833 834 836 837 839 840 840 841 842 843 844 845 846 847 848 849 850 850 850 850 850 850 850 850 850 850 850 850 850 850 850 850 849 848 847 846 845 844 844 843 843 843 844 844 843 843 842 841 841 840 839 839 839 839 840 840 841 841 842 843 844 846
793 795 798 800 802 804 807 808 810 811 813 814 815 816 817 820 822 823 824 826 828 829 830 832 833 834 836 837 838 839 840 841 842 843 844 845 846 847 848 849 850 850 850 849 850 850 850 850 850 850 850 850 850 850 850 849 848 847 846 845 844 843 843 843 843 843 843 843 843 842 842 841 840 839 839 838 838 839 840 840 841 841 842 843 845
791 794 796 798 801 803 805 807 809 810 811 812 813 814 815 817 819 821 823 825 826 827 829 831 832 833 834 836 837 838 839 840 841 842 843 844 845 846 847 848 849 849 849 849 849 849 849 850 849 849 849 849 849 849 849 848 847 847 846 846 845 844 843 843 843 843 842 842 842 842 841 841 840 839 839 838 838 838 839 840 840 841 842 843 844
790 794 796 797 799 801 803 805 807 809 810 811 812 813 814 816 818 820 822 824 825 826 828 830 831 832 833 834 835 836 837 838 840 841 841 842 843 844 846 847 848 849 849 849 849 849 849 849 849 849 848 848 848 848 848 847 846 846 846 847 847 846 845 844 842 842 841 841 841 841 840 840 839 839 838 838 838 838 839 839 840 840 841 841 842
789 792 794 796 797 799 801 803 805 807 809 810 811 813 814 816 818 820 822 823 824 826 827 828 830 830 831 833 833 835 836 837 838 839 840 841 842 843 844 845 847 848 848 848 848 848 848 848 848 848 848 848 848 847 846 846 845 845 846 848 847 848 849 846 842 841 841 841 840 840 840 839 839 839 838 838 838 838 838 839 839 839 840 840 841
786 788 790 792 795 797 799 801 804 806 807 809 810 812 814 815 817 819 821 822 823 824 825 826 827 828 829 830 832 833 834 836 837 838 839 840 841 841 842 844 845 846 847 847 847 847 847 848 848 847 848 847 847 847 846 845 845 844 845 846 848 850 850 846 843 842 841 840 841 840 839 839 838 838 838 838 838 838 838 838 838 838 839 839 839
783 785 787 789 792 795 797 799 802 804 806 808 809 811 813 814 815 817 818 819 821 821 822 823 825 826 827 829 830 832 833 834 835 836 837 838 839 840 841 842 843 844 845 845 845 846 846 847 847 847 847 847 846 846 845 844 844 844 844 844 846 847 846 844 845 845 842 840 840 840 840 839 839 838 838 838 838 838 838 837 838 838 838 838 838
781 783 785 788 790 793 795 797 800 802 804 806 808 809 811 812 813 814 815 817 818 818 820 822 823 825 827 828 829 830 832 833 834 835 836 837 837 838 839 840 841 842 843 844 844 845 845 846 846 846 846 846 845 845 845 844 844 843 843 843 843 843 843 843 845 846 845 843 840 840 840 839 839 838 837 837 837 837 837 837 837 837 837 837 837
785 787 788 789 790 792 794 796 798 800 802 804 806 808 809 811 812 813 814 815 816 817 818 821 823 824 826 827 828 829 830 831 832 833 834 835 835 836 837 838 839 840 841 842 843 844 844 844 845 845 845 844 844 844 844 844 843 843 843 843 843 842 842 842 843 844 846 845 842 839 839 839 838 837 837 837 836 836 836 836 836 836 836 836 836
783 786 789 790 790 791 793 794 796 798 800 802 804 806 807 809 810 811 813 814 815 816 818 820 822 823 824 825 826 827 829 830 830 831 832 833 833 834 836 836 837 838 839 840 841 842 843 843 843 843 843 843 843 843 843 843 843 843 842 842 842 842 842 842 842 842 843 844 843 840 838 838 837 836 836 836 835 835 835 835 835 835 835 835 835
777 780 784 787 789 790 791 792 794 796 798 800 801 803 806 807 809 810 811 813 814 816 817 819 820 822 823 824 825 826 827 828 829 830 830 831 832 833 834 835 836 836 837 838 839 840 841 841 842 842 842 842 842 842 842 842 842 842 842 842 842 842 842 841 841 842 841 842 842 839 837 837 836 835 835 835 835 834 834 834 834 834 834 834 835
776 779 782 784 786 787 789 790 792 794 795 797 799 801 803 805 806 808 809 811 812 814 816 817 819 820 821 822 823 825 826 827 827 828 829 829 830 831 832 833 834 835 836 836 837 838 839 840 840 841 841 841 841 841 841 841 841 841 841 841 841 841 841 840 840 840 840 840 840 838 836 836 835 834 834 834 833 833 833 833 833 833 833 833 833